Skip Page Navigation
NASA JPL Caltech
NASA Logo - Jet Propulsion Laboratory + View the NASA Portal
+ Center for Near-Earth Object Studies
JPL Home Earth Solar System Stars & Galaxies Technology
JPL Solar System Dynamics
BODIES ORBITS EPHEMERIDES TOOLS PHYSICAL DATA DISCOVERY FAQ SITE MAP
IMPORTANT: The SSD Announcement email list is now available. Major changes are coming in the near future, including possible hostname and/or URL changes. To be notified of such changes, subscribe to this email list.

Please visit this page for more details.


JPL Small-Body Database Browser
Search: [ help ]  
379099 (2008 YE6)
Classification: Main-belt Asteroid          SPK-ID: 2379099
Ephemeris | Orbit Diagram | Orbital Elements | Mission Design | Physical Parameters | Discovery Circumstances | Close-Approach Data ]

[ show orbit diagram ]
Orbital Elements at Epoch 2458600.5 (2019-Apr-27.0) TDB
Reference: JPL 15 (heliocentric ecliptic J2000)
 Element Value Uncertainty (1-sigma)   Units 
e .2395023632523871 6.7397e-08  
a 2.305171572324372 2.5004e-08 au
q 1.753077533050464 1.499e-07 au
i .77085745620218 7.4206e-06 deg
node 125.9664562735488 0.00081971 deg
peri 228.7863714559804 0.0008202 deg
M 38.49989403331189 2.7948e-05 deg
tp 2458463.786833302491
(2018-Dec-11.28683330)
9.8364e-05 TDB
period 1278.360401940813
3.50
2.0799e-05
5.694e-08
d
yr
n .2816107253114585 4.5819e-09 deg/d
Q 2.857265611598281 3.0992e-08 au
  Orbit Determination Parameters
   # obs. used (total)      125  
   data-arc span      6076 days (16.64 yr)  
   first obs. used      2001-11-20  
   last obs. used      2018-07-10  
   planetary ephem.      DE431  
   SB-pert. ephem.      SB431-N16  
   condition code      0  
   norm. resid. RMS      .56208  
   source      ORB  
   producer      Otto Matic  
   solution date      2019-Jul-14 14:07:58  

Additional Information
 Earth MOID = .74753 au 
 Jupiter MOID = 2.5817 au 
 T_jup = 3.550 
[ show covariance matrix ]

Ephemeris | Orbit Diagram | Orbital Elements | Mission Design | Physical Parameters | Discovery Circumstances | Close-Approach Data ]

Physical Parameter Table
Parameter Symbol Value Units Sigma Reference Notes
absolute magnitude H 17.9   n/a MPO455729  

379099 (2008 YE6)          Discovered 2001-Nov-20 by LINEAR at Socorro
Reference: Last Updated: 2013-11-20

[ show close-approach data ]
Alternate Designations
 2008 YE6 = 2001 WT81 
Ephemeris | Orbit Diagram | Orbital Elements | Mission Design | Physical Parameters | Discovery Circumstances | Close-Approach Data ]
ABOUT SSD CREDITS/AWARDS PRIVACY/COPYRIGHT GLOSSARY LINKS
FirstGov 2019-Dec-05 22:42 UT
(server date/time)  
NASA Home Page
Site Manager:   Ryan S. Park
Webmaster  Alan B. Chamberlin